Home > Weather > Viña del Mar > Past weeks

Flag for Chile Weather for the Past 2 Weeks in Viña del Mar, Chile

Now
66 °F

Overcast.


Feels Like: 66 °F
Forecast: N/A
Wind: 6 mph from Southwest

Location: Pudahuel

Current Time: May 2, 2016 at 6:44:17 PM

Latest Report: May 2, 2016 at 6:00 PM


Visibility: N/A

Pressure: 30.04 "Hg

Humidity: 52%

Dew Point: 48 °F

Location of Viña del MarLocation

Historic Weather in Viña del Mar — Graph

°F

Viña del Mar Temperature Yesterday

Maximum temperature yesterday: 63 °F (at 1:00 PM)
Minimum temperature yesterday: 55 °F (at 4:00 AM)
Average temperature yesterday: 59 °F

High & Low Weather Summary for the Past Weeks

 TemperatureHumidityPressure
High79 °F (Apr 30, 4:00 PM)100% (Apr 25, 8:00 AM)30.15 "Hg (Apr 25, 8:00 AM)
Low37 °F (Apr 25, 7:00 AM)12% (Apr 26, 4:00 PM)29.80 "Hg (Apr 30, 4:00 PM)
Average57 °F69%30.03 "Hg
* Reported Apr 17 5:00 PM — May 2 5:00 PM, Viña del Mar, Weather by CustomWeather, © 2016

Note: Actual official high and low records may vary slightly from our data, if they occured in-between our weather recording intervals... More about our weather records

Advertising

Viña del Mar Weather History for the Previous 24 Hours

Scroll right to see more
 ConditionsComfort  
Time TempWeatherWind HumidityBarometerVisibility
5:00 PM
Mon, May 2
68 °FOvercast.9 mph49%30.04 "HgN/A
4:00 PM72 °FOvercast.2 mph41%30.04 "HgN/A
3:00 PM72 °FPartly sunny.3 mph41%30.04 "Hg5 mi
2:00 PM72 °FBroken clouds.6 mph50%30.04 "Hg4 mi
1:00 PM70 °FBroken clouds.5 mph53%30.09 "Hg4 mi
12:00 PM66 °FBroken clouds.5 mph60%30.09 "Hg4 mi
11:00 AM63 °FBroken clouds.3 mph68%30.12 "Hg3 mi
10:00 AM59 °FBroken clouds.3 mph72%30.12 "Hg3 mi
9:00 AM57 °FBroken clouds.2 mph77%30.12 "Hg2 mi
8:00 AM57 °FPartly cloudy.6 mph77%30.09 "Hg4 mi
7:00 AM57 °FMostly cloudy.2 mph77%30.09 "Hg4 mi
6:00 AM55 °FMostly cloudy.6 mph82%30.09 "Hg4 mi
5:00 AM55 °FPartly cloudy.3 mph82%30.07 "Hg4 mi
4:00 AM57 °FMostly cloudy.2 mph77%30.09 "Hg4 mi
3:00 AM55 °FMostly cloudy.5 mph82%30.09 "Hg4 mi
2:00 AM57 °FOvercast.3 mph77%30.07 "Hg4 mi
1:00 AM57 °FOvercast.3 mph82%30.07 "Hg4 mi
12:00 AM55 °FOvercast.9 mph88%30.07 "Hg4 mi
11:00 PM
Sun, May 1
57 °FMostly cloudy.7 mph82%30.07 "Hg4 mi
10:00 PM59 °FMostly cloudy.6 mph72%30.09 "Hg5 mi
9:00 PM59 °FMostly cloudy.2 mph77%30.09 "Hg5 mi
8:00 PM59 °FMostly cloudy.6 mph77%30.09 "Hg4 mi
7:00 PM61 °FMostly cloudy.2 mph72%30.09 "Hg5 mi
6:00 PM61 °FMostly cloudy.9 mph72%30.07 "Hg5 mi
Weather by CustomWeather, © 2016

See weather overviewHow to use our weather pages